Location: San Gennaro Vesuviano
(40.8833°N, 14.5333°E)
Time: 21:53:02
(UTC+00:00)

Cosmos 2263 Rocket - Pass Details

Date: 22 April 2021
Orbit: 824 x 848 km, 71.0° (Epoch: 10 May)

Event Time Altitude Azimuth Distance (km) Brightness Sun altitude
Exits shadow 20:34:42 24° 55° (NE) 1,633 3.6 -26.9°
Drops below altitude 10° 20:37:12 10° 39° (NE) 2,431 4.7 -27.2°
Sets 20:39:46 0° 32° (NNE) 3,370 5.6 -27.5°
